Volver al catálogo

DELTA 1 DEB

ActivoSSO
NORAD 7084·DEBRIS·🇺🇸 United States

Lanzado Nov 6, 1973 desde Vandenberg Space Force Base

Loading…

Próximos Pases (próximas 24 horas)

TLE

ActualizadoSource: Space-Track

Época: Sep 14, 2026, 07:33 UTC

1 07084U 73086CC  26257.31475530 -.00000020  00000-0  19483-3 0  9994
2 07084 101.8647 197.2980 0152981 185.6082 330.0173 12.25199025363195

Sigue DELTA 1 DEB en tiempo real con AllMySat

Download on the App Store